Location: Lombard
(41.8800°N, 88.0080°W)
Time: 12:56:28
(UTC-05:00)

A-11 Canister half - Pass Details

Date: 04 February 2023
Orbit: 1512 x 1687 km, 47.2° (Epoch: 20 March)

Event Time Altitude Azimuth Distance (km) Brightness Sun altitude
Rises 09:49:42 0° 220° (SW) 4,876 11.8 24.0°
Reaches altitude 10° 09:52:57 10° 217° (SW) 3,871 11.4 24.3°
Maximum altitude 10:02:29 57° 142° (SE) 1,836 10.7 25.3°
Drops below altitude 10° 10:11:42 10° 67° (ENE) 3,748 11.2 26.2°
Sets 10:14:47 0° 63° (ENE) 4,713 11.6 26.5°
